Lid_Strength_Index
10 9 10 10 10 10 11 9 11 10 10 8 7 7 7 6 7 8 8 7 7 7 7 6 6 5 4 3 2 1 2 2 2 1 1 1 2 2 1 3 3 1 2 2
12 10 10 11 10 10 9 9 9 9 9 6 6 6 8 8 9 9 9 8 8 7 7 7 7 7 7 6 5 3 2 2 2 1 1 2 2 2 4 3 4 2 2 2
15 10 10 13 10 9 9 8 9 11 8 7 8 9 9 9 9 10 10 9 9 8 8 8 8 7 7 7 7 6 4 2 2 2 2 2 2 2 2 3 2 2 2 2
15 12 17 10 7 7 9 8 7 8 8 8 9 9 9 9 10 11 10 10 10 10 10 9 9 9 8 7 5 6 6 4 3 3 3 2 2 2 2 2 2 2 2 2
16 15 12 10 9 9 10 10 8 8 8 9 9 10 11 10 10 10 10 10 11 11 11 10 10 9 8 8 6 7 5 6 4 3 3 2 2 2 2 3 3 2 2 2
14 18 17 12 8 6 6 12 7 8 10 11 11 15 13 10 10 10 11 12 12 12 12 11 11 10 9 9 8 7 6 5 5 3 3 3 2 2 2 2 3 2 2 2
14 15 12 8 7 5 13 13 8 9 10 11 12 11 10 10 11 11 12 13 12 12 12 12 11 11 11 10 9 8 7 5 5 5 3 2 2 2 2 2 2 2 2 1
14 15 17 6 7 11 8 7 8 9 10 10 10 10 11 11 12 13 14 14 13 13 12 11 10 11 11 11 10 9 8 8 6 5 4 2 3 2 2 2 3 3 3 3
12 12 7 6 6 5 6 7 8 9 9 9 10 10 12 13 13 14 14 14 13 13 11 10 10 10 11 10 10 9 10 9 9 6 5 3 3 3 3 3 3 4 3 3
9 7 7 6 5 6 6 7 8 8 8 9 10 11 13 13 14 14 14 14 13 13 13 11 10 10 9 9 8 9 10 10 9 8 6 5 4 3 2 3 3 3 3 3
8 7 6 6 6 6 7 7 8 8 9 9 11 12 13 14 15 15 14 14 13 14 14 12 10 10 9 9 8 8 9 10 10 8 7 6 5 3 2 2 2 3 3 3
11 7 7 7 6 6 8 9 9 9 9 9 10 12 13 14 15 14 15 14 14 14 14 12 10 9 8 7 8 8 9 10 10 8 8 7 6 4 6 6 7 7 6 3
7 5 5 6 6 7 8 8 8 8 9 10 10 12 12 14 14 13 14 14 15 15 13 14 11 9 8 7 8 8 8 9 9 8 7 7 6 5 4 5 8 9 8 9
4 5 7 7 8 7 7 7 8 8 9 9 10 11 12 13 14 14 14 13 14 14 14 14 13 11 9 7 7 8 8 9 8 8 7 7 7 5 4 3 4 3 8 7
5 5 6 7 7 7 7 8 9 10 10 10 10 11 12 14 15 14 13 13 14 15 15 15 14 13 10 6 7 7 7 8 8 7 7 7 6 5 5 3 3 4 2 7
6 6 7 8 8 8 8 8 9 10 10 10 10 11 12 13 14 14 13 13 15 16 15 15 15 14 11 7 5 5 6 9 7 7 7 7 6 6 5 5 5 4 4 3
8 8 8 8 8 8 8 8 9 10 10 10 10 10 11 12 13 14 14 13 13 14 15 15 15 14 11 9 7 4 5 5 7 5 5 6 6 6 6 6 6 6 5 5
6 7 7 7 7 8 8 8 8 9 10 9 9 9 10 11 13 14 14 13 14 14 14 15 15 14 12 11 10 5 4 5 5 4 5 5 6 6 6 6 6 6 6 5
7 7 7 7 7 7 7 8 7 8 8 9 9 9 9 10 11 12 13 13 14 16 15 14 15 15 14 13 12 8 4 3 3 3 4 6 5 5 6 6 6 6 4 4
7 7 7 8 7 7 8 7 7 8 8 8 8 9 10 10 11 11 12 13 14 15 14 14 14 15 14 15 13 11 10 5 3 3 3 4 4 4 4 6 5 5 4 4
7 7 8 8 8 7 7 7 7 8 7 7 8 8 8 8 10 10 12 13 12 13 14 14 15 15 15 15 14 13 13 12 10 7 5 4 3 3 3 3 3 3 2 2
6 7 7 8 7 7 7 7 7 8 7 7 8 8 7 8 8 8 9 11 11 13 13 14 15 16 16 16 15 16 15 15 14 12 10 8 7 6 3 3 3 3 3 2
6 7 7 7 7 7 7 7 8 8 8 7 8 7 8 7 7 8 9 8 10 13 11 13 15 16 16 15 16 16 16 16 16 16 14 12 10 10 8 7 5 3 2 2
7 7 7 6 7 8 8 8 8 8 8 8 7 7 8 9 8 7 7 9 11 10 9 14 14 15 15 15 15 16 16 16 17 16 16 16 15 12 12 11 9 8 7 4
6 6 7 7 8 8 8 8 8 8 8 9 8 7 8 8 9 8 8 8 11 10 8 11 12 14 12 14 15 16 16 16 17 18 17 17 17 16 14 13 12 11 10 8
7 7 7 7 8 8 9 9 9 9 10 11 9 9 8 8 9 9 8 9 9 10 10 10 11 11 11 12 13 14 15 16 17 17 18 18 18 17 17 17 15 13 12 11
8 9 8 9 9 8 9 9 10 10 10 11 10 9 9 9 10 10 10 8 9 9 9 11 12 13 12 12 12 12 14 16 17 17 17 18 19 18 18 17 17 15 15 14